Location: ???? ???
(30.5005°N, 60.5936°E)
Time: 12:58:36
(UTC+00:00)

Cosmos 1515 Rocket - Pass Details

Date: 07 June 2020
Orbit: 605 x 631 km, 82.5° (Epoch: 06 July)

Event Time Altitude Azimuth Distance (km) Brightness Sun altitude
Rises 00:13:00 0° 346° (NNW) 2,875 7.2 -8.6°
Reaches altitude 10° 00:15:18 10° 340° (NNW) 1,964 6.3 -8.2°
Maximum altitude 00:19:26 44° 268° (W) 835 3.9 -7.5°
Drops below altitude 10° 00:23:31 10° 195° (SSW) 1,944 5.7 -6.7°
Sets 00:25:47 0° 189° (S) 2,843 6.6 -6.3°
